Starlink 11083

operational
NORAD ID: 59424 Int'l Des: 2024-065 Owner: SPXS Country: US Constellation: starlink
LEOCIRCULAR

Über Starlink 11083

Beschreibung wird geladen...

Live-Position

3D-Globus wird geladen...

Nächste Überflüge

Höhenverlauf

Altitude vs Time

uPlot chart will show altitude changes over time

Zweizeiliger Elementsatz

1 59424U 24065D 25350.16590753 .00005139 00000-0 47281-4 0 9996
2 59424 53.1591 145.7084 0000847 108.2916 251.8194 15.69692488 98358
Epoch: 16. Dez. 2025 • Age: 23 hours

Aktueller Status

Höhe 364.9 km
Geschwindigkeit 7.70 km/s
Subsatellitenpunkt 49.13°N, 66.33°E
Startdatum 7. Apr. 2024
Alter 1.6 years
Typ internet

Technische Details

Klassifizierung Payload
Masse 960.00 kg
Trockenmasse 910.00 kg
Gesamtmasse 960.00 kg
Länge 0.30 m
Durchmesser 4.10 m
Spannweite 29.00 m
Form Box + pan
Hersteller SPXS
Bus-Typ Starlink V2MD
Phasenstatus In Orbit
Besitzer/Staat SPXS/US

Große Konstellationen

Loading constellations...